Regional Weather Roundup
Issued by NWS

Home | Current Version | Previous Version | Graphics & Text | Print | Product List | Glossary On
Versions: 1 2 3 4 5 6 7 8 9 10 11 12 13 14 15 16 17 18 19 20 21 22 23 24 25 26 27 28 29 30 31 32 33 34 35 36 37 38 39 40 41 42 43 44 45 46 47 48 49 50
000
ASUS43 KMPX 292110
RWRMN
WEATHER ROUNDUP FOR MINNESOTA
NATIONAL WEATHER SERVICE TWIN CITIES/CHANHASSEN MN
400 PM CDT SUN MAY 29 2016


NOTE: "FAIR" INDICATES FEW OR NO CLOUDS BELOW 12,000 FEET WITH NO
SIGNIFICANT WEATHER AND/OR OBSTRUCTIONS TO VISIBILITY. N/A MEANS
CURRENT SKY AND/OR WEATHER CONDITIONS ARE NOT AVAILABLE.

MNZ060>063-068>070-292200-
   Twin Cities Metro

CITY           SKY/WX    TMP DP  RH WIND       PRES   REMARKS
TWIN CITIES    CLOUDY    78  56  46 NW15      29.95F
ST PAUL        MOSUNNY   76  58  53 NW15      29.95S
CRYSTAL        MOSUNNY   75  55  49 W13       29.94S
BLAINE         PTSUNNY   77  57  50 NW16      29.95R
EDEN PRAIRIE   MOSUNNY   78  56  46 W12G20    29.94F
SOUTH ST PAUL  CLOUDY    77  55  47 NW14      29.95S
LAKE ELMO      FAIR      73  59  60 NW13G18   29.96S
$$
MNZ001>005-007-008-013>017-022>024-027-028-292200-
   Northwest Minnesota

CITY           SKY/WX    TMP DP  RH WIND       PRES   REMARKS
BEMIDJI        PTSUNNY   70  54  56 W12       29.93S
HALLOCK        MOSUNNY   70  54  56 NW12      29.90F
ROSEAU         MOSUNNY   68  59  73 W10G18    29.90F
WARROAD        MOSUNNY   66  57  72 W10G21    29.89F
THIEF RVR FALL MOSUNNY   70  54  56 W14       29.94F
CROOKSTON      MOSUNNY   73  54  49 W7        29.93F
FOSSTON        MOSUNNY   70  54  56 W15       29.95S
DETROIT LAKES  MOSUNNY   68  55  64 N5        29.98R
MOORHEAD       MOSUNNY   72  52  49 NW16      29.95S
PARK RAPIDS    PTSUNNY   71  53  52 NW16      29.95S
MAHNOMEN       CLOUDY    68  57  68 W6        29.95F
$$
MNZ006-009>011-018-025>026-292200-
   North Central Minnesota

CITY           SKY/WX    TMP DP  RH WIND       PRES   REMARKS
BAUDETTE       CLOUDY    66  54  65 W16       29.88F
FLAG ISLAND    CLOUDY    63  55  77 NW10      29.87S
INTL FALLS     CLOUDY    61  55  81 W12       29.88S
WASKISH          N/A     66  57  72 SW9       29.91S
BIG FORK       PTSUNNY   66  55  68 W6        29.91F
LONGVILLE      MOSUNNY   68  55  64 W6        29.94F
GRAND RAPIDS   CLOUDY    65  54  67 SW13G18   29.94R
CRANE LAKE     CLOUDY    61  55  82 W6        29.88S
ORR            CLOUDY    64  54  68 W13       29.86S
COOK           PTSUNNY   66  55  68 W10G16    29.89S
WALKER         FAIR      68  54  60 W8G18     29.93F
$$
MNZ012-019>021-037-292200-
   Northeast Minnesota

CITY           SKY/WX    TMP DP  RH WIND       PRES   REMARKS
DULUTH         PTSUNNY   67  54  63 W17G29    29.89R
ELY            CLOUDY    61  55  82 W14       29.86S
HIBBING        CLOUDY    65  55  70 W10       29.90R
EVELETH        PTSUNNY   64  55  72 W16G22    29.90S
DULUTH HARBOR  CLOUDY    70  57  64 W21       29.88S
TWO HARBORS      N/A     72  61  68 W9G18     29.85R
SILVER BAY     CLOUDY    70  55  60 W9G17     29.83R
GRAND MARAIS     N/A     65  57  75 W12G22    29.76F
G MARAIS ARPRT CLOUDY    63  54  72 W13G20    29.81R
$$
MNZ029>031-032-039>041-046>048-054>057-064-292200-
   West Central Minnesota

CITY           SKY/WX    TMP DP  RH WIND       PRES   REMARKS
FERGUS FALLS   MOSUNNY   75  52  43 W12G22    29.92S
WHEATON        MOSUNNY   81  50  34 W17G25    29.98S
MORRIS         SUNNY     75  46  35 NW14G25   29.96R
ALEXANDRIA     CLOUDY    72  55  55 NW10      29.98F
ELBOW LAKE     FAIR      74  51  44 NW14G22   29.97S
WADENA         MOSUNNY   72  54  53 NW10      29.95S
GLENWOOD       SUNNY     73  54  49 W13G18    29.98F
APPLETON       MOSUNNY   81  41  24 W17G28    29.96S
ORTONVILLE     MOSUNNY   77  43  29 NW13G18   29.98S
MADISON        SUNNY     75  43  31 NW16      29.98S
WILLMAR        FAIR      72  63  73 S3        29.98S
$$
MNZ033>034-036-042>043-049>051-058-059-292200-
   Central Minnesota

CITY           SKY/WX    TMP DP  RH WIND       PRES   REMARKS
ST CLOUD       PTSUNNY   77  55  46 W15G23    29.94F
SAUK CENTRE    MOCLDY    71  58  64 NW8       29.97F
PAYNESVILLE    SUNNY     77  52  41 W12G18    29.96F
AITKIN         MOSUNNY   73  50  43 W7        29.92R
PINE RIVER     SUNNY     70  55  60 NW12      29.97F
BRAINERD       SUNNY     74  54  49 W13G22    29.94S
STAPLES        MOSUNNY   72  52  49 NW12G18   29.95S
LONG PRAIRIE   PTSUNNY   70  57  64 SW6       29.97F
LITTLE FALLS   PTSUNNY   72  50  46 W12       29.95S
LITCHFIELD     MOSUNNY   75  57  53 W6G17     29.97S
BUFFALO        MOSUNNY   74  56  53 W6        29.96F
MAPLE LAKE     PTSUNNY   74  61  63 NW5       29.97S
HUTCHINSON     MOSUNNY   77  61  57 W9        29.97F
$$
MNZ037-044-045-052-053-292200-
   East Central Minnesota

CITY           SKY/WX    TMP DP  RH WIND       PRES   REMARKS
PRINCETON      SUNNY     77  55  47 W14G20    29.94F
MORA           MOSUNNY   73  54  49 W13G18    29.94F
CAMBRIDGE        N/A     77  57  50 W13G20    29.92F
RUSH CITY      MOSUNNY   75  58  55 W9        29.93F
MOOSE LAKE     PTSUNNY   70  54  56 NW9       29.90R
HINCKLEY       MOCLDY    72  57  60 W9        29.93S
CLOQUET        CLOUDY    70  52  52 W15G24    29.91R
MCGREGOR       PTSUNNY   70  54  56 W12G21    29.93R
$$
MNZ071>073-080-081-089-090-097-098-292200-
   Southwest Minnesota

CITY           SKY/WX    TMP DP  RH WIND       PRES   REMARKS
MONTEVIDEO     MOSUNNY   81  46  30 NW14G26   29.99S
GRANITE FALLS  MOSUNNY   82  49  31 W18G25    29.99S
CANBY          MOSUNNY   80  49  34 W13G23    30.00F
MARSHALL       SUNNY     78  46  32 NW17G28   30.00S
REDWOOD FALLS  PTSUNNY   76  55  48 NW9       29.97S
OLIVIA         CLOUDY    75  54  46 W18       29.96F
PIPESTONE      SUNNY     77  41  27 N12G21    30.04S
WINDOM         MOSUNNY   79  50  36 CALM      30.01F
JACKSON        MOSUNNY   77  45  31 W15G24    30.02F
TRACY          SUNNY     78  51  39 NW13G23   30.01F
SLAYTON        SUNNY     75  45  33 NW12G21   30.04S
$$
MNZ065>067-074>077-082>085-091>093-292200-
   South Central Minnesota

CITY           SKY/WX    TMP DP  RH WIND       PRES   REMARKS
MANKATO        MOSUNNY   77  55  47 W17G23    29.98F
NEW ULM        MOSUNNY   77  55  47 W18       29.98S
ST JAMES       MOSUNNY   73  52  46 W12G21    30.00F
FAIRMONT       MOSUNNY   79  54  41 W18       30.00S
GLENCOE        MOSUNNY   77  61  58 W12       29.97S
FARIBAULT      CLOUDY    70  63  78 W8        29.99S
OWATONNA       MOSUNNY   75  57  53 W14G20    29.98S
WASECA         MOSUNNY   77  59  53 W15       30.00S
ALBERT LEA     CLOUDY    75  55  50 W8G17     30.00S
$$
MNZ078>079-086>088-094>096-292200-
   Southeast Minnesota

CITY           SKY/WX    TMP DP  RH WIND       PRES   REMARKS
ROCHESTER      MOSUNNY   76  62  62 W18       29.98F
RED WING       MOSUNNY   77  55  47 NW10G16   29.94S
STANTON        CLOUDY    73  60  62 W9G17     29.96S
DODGE CENTER   MOSUNNY   75  59  57 W16       29.99S
WINONA         PTSUNNY   73  61  64 NW9       29.96S
AUSTIN         MOSUNNY   75  55  50 W14G20    29.99F
PRESTON        MOSUNNY   76  58  53 W17G24    29.99F
$$
ABBREVIATIONS USED IN REMARKS
   TC - TEMPERATURES IN CELSIUS
  WCI - WIND CHILL INDEX
   HX - HEAT INDEX
  VSB - VISIBILITY
$$




USA.gov is the U.S. government's official web portal to all federal, state and local government web resources and services.